Year,Month,Day,Hour,Minute,Value (Times are PST for temperature in C)
2009,07,04,00,00,18.20
2009,07,04,00,01,18.20
2009,07,04,00,02,18.20
2009,07,04,00,03,18.20
2009,07,04,00,04,18.20
2009,07,04,00,05,18.20
2009,07,04,00,06,18.20
2009,07,04,00,07,18.10
2009,07,04,00,08,18.10
2009,07,04,00,09,18.00
2009,07,04,00,10,17.90
2009,07,04,00,11,17.90
2009,07,04,00,12,17.90
2009,07,04,00,13,17.90
2009,07,04,00,14,17.90
2009,07,04,00,15,17.80
2009,07,04,00,16,17.80
2009,07,04,00,17,17.80
2009,07,04,00,18,17.70
2009,07,04,00,19,17.70
2009,07,04,00,20,17.70
2009,07,04,00,21,17.60
2009,07,04,00,22,17.60
2009,07,04,00,23,17.50
2009,07,04,00,24,17.50
2009,07,04,00,25,17.50
2009,07,04,00,26,17.50
2009,07,04,00,27,17.40
2009,07,04,00,28,17.40
2009,07,04,00,29,17.40
2009,07,04,00,30,17.40
2009,07,04,00,31,17.30
2009,07,04,00,32,17.30
2009,07,04,00,33,17.30
2009,07,04,00,34,17.30
2009,07,04,00,35,17.30
2009,07,04,00,36,17.30
2009,07,04,00,37,17.30
2009,07,04,00,38,17.30
2009,07,04,00,39,17.30
2009,07,04,00,40,17.20
2009,07,04,00,41,17.20
2009,07,04,00,42,17.10
2009,07,04,00,43,17.10
2009,07,04,00,44,17.10
2009,07,04,00,45,17.00
2009,07,04,00,46,17.00
2009,07,04,00,47,17.00
2009,07,04,00,48,17.00
2009,07,04,00,49,17.00
2009,07,04,00,50,16.90
2009,07,04,00,51,16.90
2009,07,04,00,52,16.90
2009,07,04,00,53,16.90
2009,07,04,00,54,16.90
2009,07,04,00,55,16.90
2009,07,04,00,56,16.80
2009,07,04,00,57,16.80
2009,07,04,00,58,16.80
2009,07,04,00,59,16.80
2009,07,04,01,00,16.70
2009,07,04,01,01,16.70
2009,07,04,01,02,16.70
2009,07,04,01,03,16.70
2009,07,04,01,04,16.70
2009,07,04,01,05,16.70
2009,07,04,01,06,16.70
2009,07,04,01,07,16.70
2009,07,04,01,08,16.60
2009,07,04,01,09,16.60
2009,07,04,01,10,16.60
2009,07,04,01,11,16.60
2009,07,04,01,12,16.60
2009,07,04,01,13,16.60
2009,07,04,01,14,16.50
2009,07,04,01,15,16.40
2009,07,04,01,16,16.40
2009,07,04,01,17,16.40
2009,07,04,01,18,16.40
2009,07,04,01,19,16.40
2009,07,04,01,20,16.40
2009,07,04,01,21,16.40
2009,07,04,01,22,16.40
2009,07,04,01,23,16.40
2009,07,04,01,24,16.40
2009,07,04,01,25,16.40
2009,07,04,01,26,16.40
2009,07,04,01,27,16.30
2009,07,04,01,28,16.30
2009,07,04,01,29,16.30
2009,07,04,01,30,16.30
2009,07,04,01,31,16.30
2009,07,04,01,32,16.30
2009,07,04,01,33,16.30
2009,07,04,01,34,16.30
2009,07,04,01,35,16.30
2009,07,04,01,36,16.30
2009,07,04,01,37,16.20
2009,07,04,01,38,16.20
2009,07,04,01,39,16.20
2009,07,04,01,40,16.10
2009,07,04,01,41,16.10
2009,07,04,01,42,16.10
2009,07,04,01,43,16.10
2009,07,04,01,44,16.10
2009,07,04,01,45,16.10
2009,07,04,01,46,15.90
2009,07,04,01,47,15.90
2009,07,04,01,48,15.90
2009,07,04,01,49,15.80
2009,07,04,01,50,15.80
2009,07,04,01,51,15.80
2009,07,04,01,52,15.80
2009,07,04,01,53,15.80
2009,07,04,01,54,15.80
2009,07,04,01,55,15.80
2009,07,04,01,56,15.80
2009,07,04,01,57,15.80
2009,07,04,01,58,15.80
2009,07,04,01,59,15.80
2009,07,04,02,00,15.80
2009,07,04,02,01,15.80
2009,07,04,02,02,15.80
2009,07,04,02,03,15.80
2009,07,04,02,04,15.80
2009,07,04,02,05,15.80
2009,07,04,02,06,15.80
2009,07,04,02,07,15.80
2009,07,04,02,08,15.80
2009,07,04,02,09,15.80
2009,07,04,02,10,15.70
2009,07,04,02,11,15.70
2009,07,04,02,12,15.70
2009,07,04,02,13,15.70
2009,07,04,02,14,15.60
2009,07,04,02,15,15.60
2009,07,04,02,16,15.60
2009,07,04,02,17,15.50
2009,07,04,02,18,15.50
2009,07,04,02,19,15.50
2009,07,04,02,20,15.50
2009,07,04,02,21,15.40
2009,07,04,02,22,15.40
2009,07,04,02,23,15.40
2009,07,04,02,24,15.30
2009,07,04,02,25,15.30
2009,07,04,02,26,15.30
2009,07,04,02,27,15.30
2009,07,04,02,28,15.30
2009,07,04,02,29,15.30
2009,07,04,02,30,15.30
2009,07,04,02,31,15.30
2009,07,04,02,32,15.30
2009,07,04,02,33,15.30
2009,07,04,02,34,15.30
2009,07,04,02,35,15.30
2009,07,04,02,36,15.30
2009,07,04,02,37,15.30
2009,07,04,02,38,15.30
2009,07,04,02,39,15.30
2009,07,04,02,40,15.30
2009,07,04,02,41,15.30
2009,07,04,02,42,15.30
2009,07,04,02,43,15.30
2009,07,04,02,44,15.30
2009,07,04,02,45,15.30
2009,07,04,02,46,15.30
2009,07,04,02,47,15.30
2009,07,04,02,48,15.30
2009,07,04,02,49,15.30
2009,07,04,02,50,15.30
2009,07,04,02,51,15.30
2009,07,04,02,52,15.30
2009,07,04,02,53,15.30
2009,07,04,02,54,15.30
2009,07,04,02,55,15.30
2009,07,04,02,56,15.30
2009,07,04,02,57,15.30
2009,07,04,02,58,15.30
2009,07,04,02,59,15.20
2009,07,04,03,00,15.20
2009,07,04,03,01,15.20
2009,07,04,03,02,15.20
2009,07,04,03,03,15.10
2009,07,04,03,04,15.10
2009,07,04,03,05,15.10
2009,07,04,03,06,15.10
2009,07,04,03,07,15.00
2009,07,04,03,08,15.00
2009,07,04,03,09,15.00
2009,07,04,03,10,14.90
2009,07,04,03,11,14.90
2009,07,04,03,12,14.90
2009,07,04,03,13,14.90
2009,07,04,03,14,14.90
2009,07,04,03,15,14.80
2009,07,04,03,16,14.80
2009,07,04,03,17,14.80
2009,07,04,03,18,14.80
2009,07,04,03,19,14.80
2009,07,04,03,20,14.80
2009,07,04,03,21,14.80
2009,07,04,03,22,14.80
2009,07,04,03,23,14.80
2009,07,04,03,24,14.70
2009,07,04,03,25,14.70
2009,07,04,03,26,14.70
2009,07,04,03,27,14.70
2009,07,04,03,28,14.70
2009,07,04,03,29,14.70
2009,07,04,03,30,14.70
2009,07,04,03,31,14.70
2009,07,04,03,32,14.70
2009,07,04,03,33,14.60
2009,07,04,03,34,14.60
2009,07,04,03,35,14.60
2009,07,04,03,36,14.60
2009,07,04,03,37,14.60
2009,07,04,03,38,14.50
2009,07,04,03,39,14.50
2009,07,04,03,40,14.50
2009,07,04,03,41,14.50
2009,07,04,03,42,14.50
2009,07,04,03,43,14.50
2009,07,04,03,44,14.50
2009,07,04,03,45,14.50
2009,07,04,03,46,14.50
2009,07,04,03,47,14.50
2009,07,04,03,48,14.50
2009,07,04,03,49,14.50
2009,07,04,03,50,14.50
2009,07,04,03,51,14.50
2009,07,04,03,52,14.50
2009,07,04,03,53,14.50
2009,07,04,03,54,14.50
2009,07,04,03,55,14.50
2009,07,04,03,56,14.50
2009,07,04,03,57,14.50
2009,07,04,03,58,14.50
2009,07,04,03,59,14.40
2009,07,04,04,00,14.50
2009,07,04,04,01,14.40
2009,07,04,04,02,14.40
2009,07,04,04,03,14.40
2009,07,04,04,04,14.40
2009,07,04,04,05,14.40
2009,07,04,04,06,14.40
2009,07,04,04,07,14.40
2009,07,04,04,08,14.40
2009,07,04,04,09,14.40
2009,07,04,04,10,14.40
2009,07,04,04,11,14.40
2009,07,04,04,12,14.40
2009,07,04,04,13,14.30
2009,07,04,04,14,14.30
2009,07,04,04,15,14.30
2009,07,04,04,16,14.20
2009,07,04,04,17,14.20
2009,07,04,04,18,14.20
2009,07,04,04,19,14.20
2009,07,04,04,20,14.20
2009,07,04,04,21,14.20
2009,07,04,04,22,14.10
2009,07,04,04,23,14.10
2009,07,04,04,24,14.10
2009,07,04,04,25,14.10
2009,07,04,04,26,14.00
2009,07,04,04,27,14.00
2009,07,04,04,28,14.00
2009,07,04,04,29,14.00
2009,07,04,04,30,14.00
2009,07,04,04,31,13.90
2009,07,04,04,32,13.90
2009,07,04,04,33,13.90
2009,07,04,04,34,13.90
2009,07,04,04,35,13.90
2009,07,04,04,36,13.90
2009,07,04,04,37,13.90
2009,07,04,04,38,13.90
2009,07,04,04,39,13.90
2009,07,04,04,40,13.90
2009,07,04,04,41,13.80
2009,07,04,04,42,13.80
2009,07,04,04,43,13.80
2009,07,04,04,44,13.80
2009,07,04,04,45,13.80
2009,07,04,04,46,13.80
2009,07,04,04,47,13.80
2009,07,04,04,48,13.70
2009,07,04,04,49,13.70
2009,07,04,04,50,13.70
2009,07,04,04,51,13.70
2009,07,04,04,52,13.70
2009,07,04,04,53,13.70
2009,07,04,04,54,13.70
2009,07,04,04,55,13.70
2009,07,04,04,56,13.70
2009,07,04,04,57,13.70
2009,07,04,04,58,13.70
2009,07,04,04,59,13.70
2009,07,04,05,00,13.70
2009,07,04,05,01,13.60
2009,07,04,05,02,13.60
2009,07,04,05,03,13.60
2009,07,04,05,04,13.60
2009,07,04,05,05,13.60
2009,07,04,05,06,13.60
2009,07,04,05,07,13.60
2009,07,04,05,08,13.60
2009,07,04,05,09,13.60
2009,07,04,05,10,13.50
2009,07,04,05,11,13.50
2009,07,04,05,12,13.50
2009,07,04,05,13,13.50
2009,07,04,05,14,13.50
2009,07,04,05,15,13.50
2009,07,04,05,16,13.40
2009,07,04,05,17,13.40
2009,07,04,05,18,13.40
2009,07,04,05,19,13.40
2009,07,04,05,20,13.40
2009,07,04,05,21,13.30
2009,07,04,05,22,13.30
2009,07,04,05,23,13.30
2009,07,04,05,24,13.30
2009,07,04,05,25,13.30
2009,07,04,05,26,13.30
2009,07,04,05,27,13.30
2009,07,04,05,28,13.30
2009,07,04,05,29,13.30
2009,07,04,05,30,13.30
2009,07,04,05,31,13.30
2009,07,04,05,32,13.30
2009,07,04,05,33,13.40
2009,07,04,05,34,13.40
2009,07,04,05,35,13.50
2009,07,04,05,36,13.50
2009,07,04,05,37,13.50
2009,07,04,05,38,13.50
2009,07,04,05,39,13.50
2009,07,04,05,40,13.60
2009,07,04,05,41,13.60
2009,07,04,05,42,13.60
2009,07,04,05,43,13.60
2009,07,04,05,44,13.60
2009,07,04,05,45,13.60
2009,07,04,05,46,13.60
2009,07,04,05,47,13.50
2009,07,04,05,48,13.50
2009,07,04,05,49,13.50
2009,07,04,05,50,13.50
2009,07,04,05,51,13.50
2009,07,04,05,52,13.50
2009,07,04,05,53,13.50
2009,07,04,05,54,13.60
2009,07,04,05,55,13.60
2009,07,04,05,56,13.60
2009,07,04,05,57,13.60
2009,07,04,05,58,13.60
2009,07,04,05,59,13.60
2009,07,04,06,00,13.60
2009,07,04,06,01,13.60
2009,07,04,06,02,13.60
2009,07,04,06,03,13.60
2009,07,04,06,04,13.60
2009,07,04,06,05,13.60
2009,07,04,06,06,13.70
2009,07,04,06,07,13.70
2009,07,04,06,08,13.70
2009,07,04,06,09,13.70
2009,07,04,06,10,13.70
2009,07,04,06,11,13.70
2009,07,04,06,12,13.70
2009,07,04,06,13,13.70
2009,07,04,06,14,13.70
2009,07,04,06,15,13.70
2009,07,04,06,16,13.70
2009,07,04,06,17,13.80
2009,07,04,06,18,13.80
2009,07,04,06,19,13.80
2009,07,04,06,20,13.90
2009,07,04,06,21,13.90
2009,07,04,06,22,13.90
2009,07,04,06,23,14.00
2009,07,04,06,24,14.00
2009,07,04,06,25,14.00
2009,07,04,06,26,14.10
2009,07,04,06,27,14.10
2009,07,04,06,28,14.20
2009,07,04,06,29,14.20
2009,07,04,06,30,14.20
2009,07,04,06,31,14.20
2009,07,04,06,32,14.20
2009,07,04,06,33,14.30
2009,07,04,06,34,14.30
2009,07,04,06,35,14.40
2009,07,04,06,36,14.40
2009,07,04,06,37,14.50
2009,07,04,06,38,14.50
2009,07,04,06,39,14.60
2009,07,04,06,40,14.60
2009,07,04,06,41,14.70
2009,07,04,06,42,14.70
2009,07,04,06,43,14.80
2009,07,04,06,44,14.80
2009,07,04,06,45,14.90
2009,07,04,06,46,15.00
2009,07,04,06,47,15.00
2009,07,04,06,48,15.10
2009,07,04,06,49,15.10
2009,07,04,06,50,15.20
2009,07,04,06,51,15.30
2009,07,04,06,52,15.30
2009,07,04,06,53,15.40
2009,07,04,06,54,15.50
2009,07,04,06,55,15.50
2009,07,04,06,56,15.60
2009,07,04,06,57,15.70
2009,07,04,06,58,15.80
2009,07,04,06,59,15.90
2009,07,04,07,00,16.00
2009,07,04,07,01,16.10
2009,07,04,07,02,16.20
2009,07,04,07,03,16.30
2009,07,04,07,04,16.30
2009,07,04,07,05,16.40
2009,07,04,07,06,16.40
2009,07,04,07,07,16.50
2009,07,04,07,08,16.60
2009,07,04,07,09,16.60
2009,07,04,07,10,16.70
2009,07,04,07,11,16.70
2009,07,04,07,12,16.70
2009,07,04,07,13,16.70
2009,07,04,07,14,16.80
2009,07,04,07,15,16.80
2009,07,04,07,16,16.90
2009,07,04,07,17,16.90
2009,07,04,07,18,17.00
2009,07,04,07,19,17.00
2009,07,04,07,20,17.10
2009,07,04,07,21,17.20
2009,07,04,07,22,17.30
2009,07,04,07,23,17.30
2009,07,04,07,24,17.40
2009,07,04,07,25,17.50
2009,07,04,07,26,17.60
2009,07,04,07,27,17.70
2009,07,04,07,28,17.70
2009,07,04,07,29,17.80
2009,07,04,07,30,17.90
2009,07,04,07,31,17.90
2009,07,04,07,32,18.00
2009,07,04,07,33,18.10
2009,07,04,07,34,18.10
2009,07,04,07,35,18.20
2009,07,04,07,36,18.30
2009,07,04,07,37,18.40
2009,07,04,07,38,18.50
2009,07,04,07,39,18.50
2009,07,04,07,40,18.60
2009,07,04,07,41,18.70
2009,07,04,07,42,18.80
2009,07,04,07,43,18.90
2009,07,04,07,44,18.90
2009,07,04,07,45,19.00
2009,07,04,07,46,19.10
2009,07,04,07,47,19.20
2009,07,04,07,48,19.30
2009,07,04,07,49,19.40
2009,07,04,07,50,19.50
2009,07,04,07,51,19.60
2009,07,04,07,52,19.70
2009,07,04,07,53,19.80
2009,07,04,07,54,19.80
2009,07,04,07,55,19.90
2009,07,04,07,56,19.90
2009,07,04,07,57,19.90
2009,07,04,07,58,19.90
2009,07,04,07,59,20.00
2009,07,04,08,00,19.90
2009,07,04,08,01,19.90
2009,07,04,08,02,19.90
2009,07,04,08,03,19.90
2009,07,04,08,04,20.00
2009,07,04,08,05,20.10
2009,07,04,08,06,20.20
2009,07,04,08,07,20.30
2009,07,04,08,08,20.30
2009,07,04,08,09,20.40
2009,07,04,08,10,20.40
2009,07,04,08,11,20.40
2009,07,04,08,12,20.50
2009,07,04,08,13,20.50
2009,07,04,08,14,20.50
2009,07,04,08,15,20.60
2009,07,04,08,16,20.50
2009,07,04,08,17,20.50
2009,07,04,08,18,20.40
2009,07,04,08,19,20.40
2009,07,04,08,20,20.50
2009,07,04,08,21,20.50
2009,07,04,08,22,20.50
2009,07,04,08,23,20.60
2009,07,04,08,24,20.60
2009,07,04,08,25,20.60
2009,07,04,08,26,20.60
2009,07,04,08,27,20.50
2009,07,04,08,28,20.40
2009,07,04,08,29,20.30
2009,07,04,08,30,20.20
2009,07,04,08,31,20.20
2009,07,04,08,32,20.20
2009,07,04,08,33,20.20
2009,07,04,08,34,20.20
2009,07,04,08,35,20.30
2009,07,04,08,36,20.30
2009,07,04,08,37,20.30
2009,07,04,08,38,20.20
2009,07,04,08,39,20.20
2009,07,04,08,40,20.20
2009,07,04,08,41,20.20
2009,07,04,08,42,20.30
2009,07,04,08,43,20.40
2009,07,04,08,44,20.50
2009,07,04,08,45,20.60
2009,07,04,08,46,20.70
2009,07,04,08,47,20.70
2009,07,04,08,48,20.70
2009,07,04,08,49,20.60
2009,07,04,08,50,20.60
2009,07,04,08,51,20.60
2009,07,04,08,52,20.60
2009,07,04,08,53,20.70
2009,07,04,08,54,20.70
2009,07,04,08,55,20.80
2009,07,04,08,56,20.80
2009,07,04,08,57,20.80
2009,07,04,08,58,20.80
2009,07,04,08,59,20.80
2009,07,04,09,00,20.80
2009,07,04,09,01,20.80
2009,07,04,09,02,20.90
2009,07,04,09,03,21.00
2009,07,04,09,04,21.10
2009,07,04,09,05,21.10
2009,07,04,09,06,21.10
2009,07,04,09,07,21.20
2009,07,04,09,08,21.10
2009,07,04,09,09,21.00
2009,07,04,09,10,20.90
2009,07,04,09,11,20.90
2009,07,04,09,12,20.80
2009,07,04,09,13,20.80
2009,07,04,09,14,20.80
2009,07,04,09,15,20.80
2009,07,04,09,16,20.70
2009,07,04,09,17,20.70
2009,07,04,09,18,20.60
2009,07,04,09,19,20.60
2009,07,04,09,20,20.60
2009,07,04,09,21,20.50
2009,07,04,09,22,20.60
2009,07,04,09,23,20.60
2009,07,04,09,24,20.70
2009,07,04,09,25,20.80
2009,07,04,09,26,20.90
2009,07,04,09,27,21.00
2009,07,04,09,28,21.10
2009,07,04,09,29,21.20
2009,07,04,09,30,21.30
2009,07,04,09,31,21.30
2009,07,04,09,32,21.30
2009,07,04,09,33,21.30
2009,07,04,09,34,21.40
2009,07,04,09,35,21.40
2009,07,04,09,36,21.40
2009,07,04,09,37,21.30
2009,07,04,09,38,21.40
2009,07,04,09,39,21.40
2009,07,04,09,40,21.40
2009,07,04,09,41,21.50
2009,07,04,09,42,21.60
2009,07,04,09,43,21.60
2009,07,04,09,44,21.60
2009,07,04,09,45,21.60
2009,07,04,09,46,21.60
2009,07,04,09,47,21.60
2009,07,04,09,48,21.70
2009,07,04,09,49,21.70
2009,07,04,09,50,21.80
2009,07,04,09,51,22.00
2009,07,04,09,52,22.00
2009,07,04,09,53,21.80
2009,07,04,09,54,21.70
2009,07,04,09,55,21.50
2009,07,04,09,56,21.30
2009,07,04,09,57,21.40
2009,07,04,09,58,21.50
2009,07,04,09,59,21.50
2009,07,04,10,00,21.40
2009,07,04,10,01,21.30
2009,07,04,10,02,21.40
2009,07,04,10,03,21.40
2009,07,04,10,04,21.40
2009,07,04,10,05,21.60
2009,07,04,10,06,21.60
2009,07,04,10,07,21.70
2009,07,04,10,08,21.70
2009,07,04,10,09,21.60
2009,07,04,10,10,21.50
2009,07,04,10,11,21.50
2009,07,04,10,12,21.60
2009,07,04,10,13,21.60
2009,07,04,10,14,21.70
2009,07,04,10,15,21.80
2009,07,04,10,16,21.80
2009,07,04,10,17,21.80
2009,07,04,10,18,21.80
2009,07,04,10,19,21.80
2009,07,04,10,20,21.70
2009,07,04,10,21,21.80
2009,07,04,10,22,21.90
2009,07,04,10,23,21.90
2009,07,04,10,24,21.90
2009,07,04,10,25,21.90
2009,07,04,10,26,21.80
2009,07,04,10,27,21.80
2009,07,04,10,28,21.90
2009,07,04,10,29,22.10
2009,07,04,10,30,22.20
2009,07,04,10,31,22.30
2009,07,04,10,32,22.40
2009,07,04,10,33,22.30
2009,07,04,10,34,22.30
2009,07,04,10,35,22.20
2009,07,04,10,36,22.30
2009,07,04,10,37,22.40
2009,07,04,10,38,22.60
2009,07,04,10,39,22.60
2009,07,04,10,40,22.70
2009,07,04,10,41,22.90
2009,07,04,10,42,22.90
2009,07,04,10,43,22.90
2009,07,04,10,44,22.90
2009,07,04,10,45,22.90
2009,07,04,10,46,22.80
2009,07,04,10,47,22.80
2009,07,04,10,48,22.90
2009,07,04,10,49,22.90
2009,07,04,10,50,22.90
2009,07,04,10,51,22.90
2009,07,04,10,52,22.90
2009,07,04,10,53,23.00
2009,07,04,10,54,23.20
2009,07,04,10,55,23.30
2009,07,04,10,56,23.30
2009,07,04,10,57,23.20
2009,07,04,10,58,23.10
2009,07,04,10,59,22.90
2009,07,04,11,00,22.80
2009,07,04,11,01,22.80
2009,07,04,11,02,22.80
2009,07,04,11,03,22.70
2009,07,04,11,04,22.60
2009,07,04,11,05,22.60
2009,07,04,11,06,22.50
2009,07,04,11,07,22.50
2009,07,04,11,08,22.60
2009,07,04,11,09,22.60
2009,07,04,11,10,22.70
2009,07,04,11,11,22.80
2009,07,04,11,12,22.90
2009,07,04,11,13,23.00
2009,07,04,11,14,22.90
2009,07,04,11,15,23.00
2009,07,04,11,16,23.10
2009,07,04,11,17,23.30
2009,07,04,11,18,23.30
2009,07,04,11,19,23.30
2009,07,04,11,20,23.20
2009,07,04,11,21,23.10
2009,07,04,11,22,23.20
2009,07,04,11,23,23.00
2009,07,04,11,24,22.80
2009,07,04,11,25,22.70
2009,07,04,11,26,22.80
2009,07,04,11,27,22.80
2009,07,04,11,28,22.90
2009,07,04,11,29,22.90
2009,07,04,11,30,23.00
2009,07,04,11,31,22.90
2009,07,04,11,32,22.80
2009,07,04,11,33,22.70
2009,07,04,11,34,22.70
2009,07,04,11,35,22.50
2009,07,04,11,36,22.30
2009,07,04,11,37,22.10
2009,07,04,11,38,22.10
2009,07,04,11,39,22.10
2009,07,04,11,40,21.90
2009,07,04,11,41,21.90
2009,07,04,11,42,21.90
2009,07,04,11,43,22.00
2009,07,04,11,44,22.00
2009,07,04,11,45,22.10
2009,07,04,11,46,22.00
2009,07,04,11,47,22.00
2009,07,04,11,48,22.10
2009,07,04,11,49,22.30
2009,07,04,11,50,22.60
2009,07,04,11,51,22.90
2009,07,04,11,52,23.10
2009,07,04,11,53,23.10
2009,07,04,11,54,23.10
2009,07,04,11,55,23.20
2009,07,04,11,56,23.00
2009,07,04,11,57,22.90
2009,07,04,11,58,22.80
2009,07,04,11,59,22.70
2009,07,04,12,00,22.80
2009,07,04,12,01,22.80
2009,07,04,12,02,22.80
2009,07,04,12,03,22.70
2009,07,04,12,04,22.70
2009,07,04,12,05,22.80
2009,07,04,12,06,22.90
2009,07,04,12,07,23.00
2009,07,04,12,08,23.20
2009,07,04,12,09,23.10
2009,07,04,12,10,22.90
2009,07,04,12,11,22.90
2009,07,04,12,12,22.90
2009,07,04,12,13,23.00
2009,07,04,12,14,23.10
2009,07,04,12,15,23.30
2009,07,04,12,16,23.40
2009,07,04,12,17,23.60
2009,07,04,12,18,23.60
2009,07,04,12,19,23.50
2009,07,04,12,20,23.30
2009,07,04,12,21,23.30
2009,07,04,12,22,23.30
2009,07,04,12,23,23.30
2009,07,04,12,24,23.40
2009,07,04,12,25,23.60
2009,07,04,12,26,23.70
2009,07,04,12,27,23.70
2009,07,04,12,28,23.70
2009,07,04,12,29,23.70
2009,07,04,12,30,23.70
2009,07,04,12,31,23.70
2009,07,04,12,32,23.70
2009,07,04,12,33,23.60
2009,07,04,12,34,23.40
2009,07,04,12,35,23.30
2009,07,04,12,36,23.20
2009,07,04,12,37,23.20
2009,07,04,12,38,23.20
2009,07,04,12,39,23.20
2009,07,04,12,40,23.20
2009,07,04,12,41,23.30
2009,07,04,12,42,23.40
2009,07,04,12,43,23.40
2009,07,04,12,44,23.50
2009,07,04,12,45,23.60
2009,07,04,12,46,23.60
2009,07,04,12,47,23.60
2009,07,04,12,48,23.70
2009,07,04,12,49,23.70
2009,07,04,12,50,23.60
2009,07,04,12,51,23.40
2009,07,04,12,52,23.40
2009,07,04,12,53,23.40
2009,07,04,12,54,23.20
2009,07,04,12,55,23.20
2009,07,04,12,56,23.20
2009,07,04,12,57,23.30
2009,07,04,12,58,23.30
2009,07,04,12,59,23.30
2009,07,04,13,00,23.30
2009,07,04,13,01,23.40
2009,07,04,13,02,23.50
2009,07,04,13,03,23.70
2009,07,04,13,04,23.70
2009,07,04,13,05,23.70
2009,07,04,13,06,23.80
2009,07,04,13,07,23.90
2009,07,04,13,08,23.90
2009,07,04,13,09,23.90
2009,07,04,13,10,23.80
2009,07,04,13,11,23.70
2009,07,04,13,12,23.50
2009,07,04,13,13,23.40
2009,07,04,13,14,23.40
2009,07,04,13,15,23.40
2009,07,04,13,16,23.30
2009,07,04,13,17,23.30
2009,07,04,13,18,23.30
2009,07,04,13,19,23.40
2009,07,04,13,20,23.40
2009,07,04,13,21,23.30
2009,07,04,13,22,23.20
2009,07,04,13,23,23.30
2009,07,04,13,24,23.40
2009,07,04,13,25,23.40
2009,07,04,13,26,23.30
2009,07,04,13,27,23.50
2009,07,04,13,28,23.70
2009,07,04,13,29,23.80
2009,07,04,13,30,23.90
2009,07,04,13,31,24.00
2009,07,04,13,32,24.10
2009,07,04,13,33,24.30
2009,07,04,13,34,24.40
2009,07,04,13,35,24.50
2009,07,04,13,36,24.50
2009,07,04,13,37,24.40
2009,07,04,13,38,24.30
2009,07,04,13,39,24.10
2009,07,04,13,40,23.90
2009,07,04,13,41,24.00
2009,07,04,13,42,24.00
2009,07,04,13,43,24.00
2009,07,04,13,44,24.10
2009,07,04,13,45,24.10
2009,07,04,13,46,24.20
2009,07,04,13,47,24.40
2009,07,04,13,48,24.40
2009,07,04,13,49,24.40
2009,07,04,13,50,24.20
2009,07,04,13,51,24.00
2009,07,04,13,52,23.90
2009,07,04,13,53,23.80
2009,07,04,13,54,23.70
2009,07,04,13,55,23.70
2009,07,04,13,56,23.70
2009,07,04,13,57,23.80
2009,07,04,13,58,23.80
2009,07,04,13,59,23.90
2009,07,04,14,00,24.10
2009,07,04,14,01,24.10
2009,07,04,14,02,24.10
2009,07,04,14,03,24.20
2009,07,04,14,04,24.20
2009,07,04,14,05,24.20
2009,07,04,14,06,24.30
2009,07,04,14,07,24.20
2009,07,04,14,08,24.20
2009,07,04,14,09,24.30
2009,07,04,14,10,24.40
2009,07,04,14,11,24.40
2009,07,04,14,12,24.40
2009,07,04,14,13,24.40
2009,07,04,14,14,24.50
2009,07,04,14,15,24.60
2009,07,04,14,16,24.70
2009,07,04,14,17,24.50
2009,07,04,14,18,24.50
2009,07,04,14,19,24.60
2009,07,04,14,20,24.80
2009,07,04,14,21,24.90
2009,07,04,14,22,24.90
2009,07,04,14,23,24.90
2009,07,04,14,24,24.90
2009,07,04,14,25,25.00
2009,07,04,14,26,25.10
2009,07,04,14,27,25.10
2009,07,04,14,28,25.10
2009,07,04,14,29,25.00
2009,07,04,14,30,24.90
2009,07,04,14,31,24.90
2009,07,04,14,32,24.90
2009,07,04,14,33,25.00
2009,07,04,14,34,24.90
2009,07,04,14,35,24.90
2009,07,04,14,36,25.10
2009,07,04,14,37,25.00
2009,07,04,14,38,25.00
2009,07,04,14,39,25.00
2009,07,04,14,40,25.20
2009,07,04,14,41,25.20
2009,07,04,14,42,25.30
2009,07,04,14,43,25.40
2009,07,04,14,44,25.40
2009,07,04,14,45,25.50
2009,07,04,14,46,25.50
2009,07,04,14,47,25.50
2009,07,04,14,48,25.60
2009,07,04,14,49,25.40
2009,07,04,14,50,25.10
2009,07,04,14,51,24.90
2009,07,04,14,52,24.90
2009,07,04,14,53,25.00
2009,07,04,14,54,25.10
2009,07,04,14,55,25.20
2009,07,04,14,56,25.20
2009,07,04,14,57,25.20
2009,07,04,14,58,25.00
2009,07,04,14,59,25.00
2009,07,04,15,00,25.00
2009,07,04,15,01,25.10
2009,07,04,15,02,25.20
2009,07,04,15,03,25.30
2009,07,04,15,04,25.40
2009,07,04,15,05,25.60
2009,07,04,15,06,25.60
2009,07,04,15,07,25.60
2009,07,04,15,08,25.60
2009,07,04,15,09,25.60
2009,07,04,15,10,25.80
2009,07,04,15,11,25.90
2009,07,04,15,12,26.00
2009,07,04,15,13,25.90
2009,07,04,15,14,25.80
2009,07,04,15,15,25.60
2009,07,04,15,16,25.60
2009,07,04,15,17,25.60
2009,07,04,15,18,25.50
2009,07,04,15,19,25.60
2009,07,04,15,20,25.50
2009,07,04,15,21,25.60
2009,07,04,15,22,25.80
2009,07,04,15,23,25.80
2009,07,04,15,24,25.80
2009,07,04,15,25,25.90
2009,07,04,15,26,26.00
2009,07,04,15,27,26.10
2009,07,04,15,28,26.20
2009,07,04,15,29,26.20
2009,07,04,15,30,26.20
2009,07,04,15,31,26.10
2009,07,04,15,32,25.90
2009,07,04,15,33,25.90
2009,07,04,15,34,25.90
2009,07,04,15,35,25.90
2009,07,04,15,36,26.00
2009,07,04,15,37,26.20
2009,07,04,15,38,26.40
2009,07,04,15,39,26.40
2009,07,04,15,40,26.50
2009,07,04,15,41,26.60
2009,07,04,15,42,26.40
2009,07,04,15,43,26.10
2009,07,04,15,44,25.90
2009,07,04,15,45,25.90
2009,07,04,15,46,25.90
2009,07,04,15,47,25.80
2009,07,04,15,48,25.60
2009,07,04,15,49,25.30
2009,07,04,15,50,25.20
2009,07,04,15,51,25.30
2009,07,04,15,52,25.40
2009,07,04,15,53,25.50
2009,07,04,15,54,25.50
2009,07,04,15,55,25.30
2009,07,04,15,56,25.20
2009,07,04,15,57,25.10
2009,07,04,15,58,24.90
2009,07,04,15,59,24.90
2009,07,04,16,00,24.90
2009,07,04,16,01,24.80
2009,07,04,16,02,24.90
2009,07,04,16,03,24.90
2009,07,04,16,04,24.80
2009,07,04,16,05,24.90
2009,07,04,16,06,24.90
2009,07,04,16,07,25.00
2009,07,04,16,08,25.10
2009,07,04,16,09,25.10
2009,07,04,16,10,25.10
2009,07,04,16,11,25.10
2009,07,04,16,12,25.00
2009,07,04,16,13,25.00
2009,07,04,16,14,25.10
2009,07,04,16,15,25.10
2009,07,04,16,16,25.20
2009,07,04,16,17,25.30
2009,07,04,16,18,25.50
2009,07,04,16,19,25.70
2009,07,04,16,20,25.80
2009,07,04,16,21,25.80
2009,07,04,16,22,25.80
2009,07,04,16,23,25.90
2009,07,04,16,24,25.90
2009,07,04,16,25,25.90
2009,07,04,16,26,26.00
2009,07,04,16,27,25.90
2009,07,04,16,28,25.80
2009,07,04,16,29,25.80
2009,07,04,16,30,25.80
2009,07,04,16,31,25.80
2009,07,04,16,32,25.80
2009,07,04,16,33,25.60
2009,07,04,16,34,25.50
2009,07,04,16,35,25.60
2009,07,04,16,36,25.60
2009,07,04,16,37,25.60
2009,07,04,16,38,25.50
2009,07,04,16,39,25.60
2009,07,04,16,40,25.60
2009,07,04,16,41,25.80
2009,07,04,16,42,25.90
2009,07,04,16,43,26.00
2009,07,04,16,44,26.20
2009,07,04,16,45,26.20
2009,07,04,16,46,26.20
2009,07,04,16,47,26.20
2009,07,04,16,48,26.30
2009,07,04,16,49,26.40
2009,07,04,16,50,26.40
2009,07,04,16,51,26.50
2009,07,04,16,52,26.60
2009,07,04,16,53,26.60
2009,07,04,16,54,26.60
2009,07,04,16,55,26.50
2009,07,04,16,56,26.40
2009,07,04,16,57,26.20
2009,07,04,16,58,26.10
2009,07,04,16,59,26.00
2009,07,04,17,00,26.20
2009,07,04,17,01,26.20
2009,07,04,17,02,26.20
2009,07,04,17,03,26.10
2009,07,04,17,04,26.00
2009,07,04,17,05,25.90
2009,07,04,17,06,25.90
2009,07,04,17,07,26.00
2009,07,04,17,08,26.00
2009,07,04,17,09,26.10
2009,07,04,17,10,26.20
2009,07,04,17,11,26.20
2009,07,04,17,12,26.30
2009,07,04,17,13,26.50
2009,07,04,17,14,26.60
2009,07,04,17,15,26.60
2009,07,04,17,16,26.60
2009,07,04,17,17,26.60
2009,07,04,17,18,26.50
2009,07,04,17,19,26.40